GFSNE_con_lsi_147.txt.gz
Lid_Strength_Index
1 1 1 1 1 1 1 2 4 6 6 4 6 7 6 7 6 7 7 6 6 6 6 7 7 7 7 7 7 6 6 5 5 5 5 5 4 4
2 1 1 2 2 2 2 2 2 4 6 4 7 7 7 8 7 7 8 8 8 8 8 8 8 7 6 7 7 7 7 6 6 5 5 5 5 5
3 4 4 3 3 4 3 4 4 3 4 7 7 8 9 8 9 8 9 9 9 9 8 8 7 7 7 7 7 7 6 6 6 6 6 6 6 6
4 4 4 5 6 5 4 5 5 6 4 6 8 8 10 10 9 10 10 10 9 9 9 8 7 8 8 8 8 8 8 8 7 7 7 7 7 7
6 7 6 5 6 7 7 7 7 7 6 6 9 8 10 11 11 10 11 10 9 9 9 9 8 9 9 9 9 9 9 9 9 8 8 8 7 7
8 9 9 9 9 8 9 9 9 9 8 8 9 10 10 10 10 11 11 10 11 10 10 9 9 9 9 9 10 9 9 8 8 7 7 6 6 6
9 9 9 9 9 9 9 10 11 11 11 11 12 12 12 11 12 12 13 12 11 11 11 12 12 11 10 9 8 8 8 8 8 7 6 6 7 7
9 9 9 9 9 9 9 10 10 10 11 11 11 12 12 12 12 12 12 12 14 10 12 12 11 11 10 10 9 9 9 9 9 9 8 8 8 8
10 10 11 12 10 10 10 10 10 10 10 10 12 12 12 12 12 12 12 13 13 12 13 14 11 12 11 10 9 9 10 9 9 9 9 9 9 9
10 10 10 11 12 12 12 12 12 12 12 12 11 11 11 11 11 12 12 13 12 12 12 16 13 14 13 13 10 10 9 9 9 9 9 9 9 9
10 10 10 10 11 12 12 13 13 13 13 12 12 13 13 13 13 14 15 16 16 15 14 15 15 15 14 13 11 10 9 9 9 9 9 9 9 9
11 10 10 10 10 11 11 13 14 13 13 14 14 14 14 14 14 14 15 17 17 17 13 16 15 15 16 13 12 12 11 10 9 9 8 8 8 9
12 12 11 10 9 10 11 12 12 12 13 14 15 15 15 15 15 15 15 15 16 16 14 14 16 15 15 15 13 13 12 11 10 9 8 8 8 9
13 12 11 10 10 11 11 11 11 12 13 15 15 15 16 16 15 15 15 15 14 15 14 15 15 16 16 16 15 13 12 11 10 11 11 9 9 9
11 12 10 11 10 11 11 12 11 13 14 16 16 16 16 16 16 16 15 15 16 15 14 16 15 15 15 15 15 13 13 12 11 11 11 12 12 12
11 12 11 11 11 12 13 13 13 13 15 15 15 15 16 16 16 16 18 17 18 17 15 15 15 15 14 14 13 14 13 14 12 11 12 12 12 11
11 12 13 13 14 14 14 14 14 14 15 15 15 16 16 16 16 16 18 19 19 18 17 15 12 11 12 13 14 13 13 12 12 12 12 13 12 11
12 13 14 14 14 14 15 15 15 14 15 15 15 16 17 17 16 16 16 16 17 18 17 14 13 13 13 13 10 13 13 12 12 12 12 13 13 12
13 13 14 14 14 14 14 14 15 15 15 16 16 16 17 16 16 17 16 16 16 16 15 14 13 14 16 16 14 10 15 14 14 13 12 12 13 12
13 14 14 14 14 14 14 14 14 14 15 16 16 16 16 16 17 17 16 17 16 15 16 14 13 13 15 16 15 14 11 13 13 12 12 12 11 8
14 14 13 13 13 13 13 14 14 15 15 16 16 15 15 16 17 16 16 15 15 15 16 17 15 11 12 12 15 14 12 10 10 11 11 12 12 12
14 13 13 13 13 13 13 13 14 14 15 16 15 15 15 16 17 16 16 16 15 15 15 14 13 12 13 14 15 14 13 11 9 8 8 8 10 13
13 13 13 13 13 13 13 13 14 15 15 15 15 15 15 16 16 15 15 15 15 15 14 14 14 13 13 13 13 13 12 11 10 10 9 7 7 8

GFSNE_con_lsi_150.txt.gz
Lid_Strength_Index
1 1 1 2 2 1 1 2 4 6 6 5 6 6 7 7 6 7 7 6 5 5 6 6 6 6 6 6 6 6 6 6 5 6 6 5 5 5
3 3 3 3 3 3 2 2 2 4 6 5 7 7 7 8 7 8 8 8 8 7 7 7 7 7 6 7 7 7 6 6 6 5 5 5 5 5
5 5 6 6 6 6 6 5 5 4 5 7 6 7 8 8 9 8 9 9 9 9 8 8 7 7 7 7 7 7 7 6 6 6 6 5 5 5
7 7 7 6 8 8 8 9 9 8 6 7 7 8 9 9 9 10 10 9 10 9 9 9 8 8 8 8 8 8 7 7 8 7 7 7 6 6
9 10 10 9 8 8 8 10 9 8 7 8 10 9 9 10 10 10 12 12 10 9 9 8 8 8 8 8 8 8 9 9 9 8 8 8 7 6
10 11 11 11 10 9 10 12 11 11 9 9 10 11 11 11 12 13 13 12 12 9 9 9 9 9 9 9 9 10 9 9 9 8 7 6 6 6
11 11 11 10 9 10 11 12 12 13 12 12 12 12 12 14 14 13 14 14 13 12 13 13 14 14 12 9 9 8 8 8 8 8 7 7 7 8
11 11 11 10 10 9 10 10 11 13 14 14 15 15 15 15 14 14 15 15 16 13 15 15 13 13 12 12 9 9 9 9 8 8 8 8 9 9
12 12 12 12 11 12 11 10 10 10 11 14 16 16 16 15 15 15 15 15 16 14 14 16 14 15 13 12 11 10 10 10 10 10 9 9 9 8
12 12 13 13 12 12 13 13 13 14 13 13 14 14 14 14 15 15 16 17 16 15 15 19 16 17 15 15 11 10 10 9 9 9 9 8 8 8
13 13 13 13 11 11 13 14 14 14 12 11 11 12 11 12 14 16 18 18 18 18 17 17 17 17 16 16 13 10 10 10 10 9 9 9 9 9
14 13 10 12 10 11 14 15 15 16 16 16 15 14 13 14 14 16 17 20 20 20 15 19 18 17 20 17 16 15 14 11 11 10 9 9 9 10
14 14 13 10 10 10 11 15 14 14 14 16 17 16 16 16 17 17 17 19 20 20 16 16 17 17 17 18 17 17 16 14 13 12 10 9 8 8
14 14 13 10 10 10 10 11 11 13 16 16 17 17 17 17 18 18 17 17 17 17 16 18 21 20 17 18 17 17 15 14 13 11 10 9 9 9
13 13 11 9 10 10 10 10 11 15 16 17 17 18 18 19 19 19 18 18 19 17 14 18 18 22 20 18 18 16 15 14 12 11 11 11 11 11
11 12 11 11 11 12 12 12 14 15 16 18 17 18 19 20 19 21 23 23 24 22 18 20 19 16 16 16 16 16 14 14 14 12 11 11 11 11
13 15 15 15 16 15 16 16 15 15 16 17 17 18 18 17 17 18 22 24 24 24 22 20 17 14 14 15 16 15 14 13 12 11 12 13 12 12
14 16 16 16 16 16 16 16 15 14 15 15 15 16 17 18 17 17 17 18 18 18 23 22 16 15 15 15 13 16 15 14 13 14 13 13 13 12
14 15 16 16 16 16 16 16 15 15 14 15 16 17 18 19 17 18 18 17 17 17 17 16 16 16 17 17 14 11 15 14 14 13 12 12 13 12
13 15 15 15 15 15 15 15 14 14 14 15 16 17 18 18 18 18 18 18 18 17 17 19 21 15 16 16 15 13 10 12 13 13 12 11 10 9
14 13 14 14 14 14 14 14 14 14 15 16 16 17 17 18 18 18 18 16 16 16 17 17 16 13 13 12 15 14 12 10 10 11 11 11 12 12
14 13 13 13 13 13 14 13 14 14 14 15 16 16 16 17 18 18 17 17 17 16 16 15 14 14 14 14 15 14 13 11 10 9 8 9 11 13
13 13 13 13 13 13 13 13 13 14 14 15 15 15 16 17 17 17 16 16 16 16 16 16 15 14 14 14 13 13 13 12 11 11 11 8 7 7

GFSNE_con_lsi_153.txt.gz
Lid_Strength_Index
3 3 3 3 3 2 2 2 4 6 6 5 6 6 7 6 7 8 7 5 5 5 6 6 6 6 5 5 5 5 6 6 6 5 5 5 5 5
5 5 4 4 4 4 4 4 3 4 6 5 7 7 7 7 7 8 8 8 8 7 7 7 7 6 6 6 6 7 7 6 6 6 6 6 5 5
7 7 7 7 8 8 8 8 7 6 4 7 7 8 9 8 8 8 8 9 9 8 8 8 7 7 8 8 7 8 7 7 7 6 6 6 5 5
9 9 9 8 9 10 10 9 10 9 6 7 8 9 10 9 9 10 9 9 10 8 8 8 8 8 8 8 8 8 8 8 8 7 7 7 7 6
11 11 11 11 11 9 10 12 11 9 9 7 9 9 10 10 10 11 11 11 10 8 8 8 8 9 8 9 8 9 9 8 8 8 8 8 8 7
11 11 11 12 12 11 12 13 12 13 12 12 12 11 11 11 12 14 14 13 13 11 11 10 10 10 9 8 8 9 10 9 9 9 8 7 7 7
12 12 12 10 9 10 12 13 14 15 14 14 14 14 15 16 16 15 15 15 13 14 14 14 14 13 11 10 10 9 8 8 9 8 8 8 8 8
12 13 12 11 11 11 10 9 11 14 15 16 16 16 16 16 15 16 16 17 17 14 15 15 14 14 13 13 10 9 9 9 8 9 9 9 9 9
12 13 13 14 12 14 12 11 11 10 11 14 16 16 16 16 15 16 16 17 17 16 16 18 16 17 15 14 11 10 10 10 10 9 9 9 9 9
13 13 14 15 14 14 15 15 15 15 14 14 16 16 15 16 16 15 16 16 16 16 16 19 18 18 17 16 11 10 10 10 10 9 9 9 10 9
13 14 14 14 12 11 14 15 15 15 12 11 12 11 12 12 15 16 18 18 18 18 17 18 18 18 18 17 15 11 12 11 11 11 11 10 10 10
14 14 10 13 11 10 14 16 16 16 15 15 15 14 14 15 14 16 17 20 20 21 18 20 19 19 21 18 17 16 16 13 12 12 11 11 11 11
14 15 14 10 10 10 11 15 15 15 14 16 16 16 16 17 17 17 17 19 22 22 17 20 24 22 22 20 18 18 17 16 15 14 12 11 10 10
14 14 14 10 9 9 10 11 11 12 15 16 17 16 17 18 18 18 17 18 18 19 17 19 20 21 18 18 19 18 17 16 17 16 15 12 10 10
14 13 12 10 9 9 9 10 10 15 16 17 16 17 17 18 18 18 18 17 19 17 16 20 20 19 18 18 18 17 16 16 15 18 16 14 13 12
13 14 13 11 10 11 11 11 14 16 16 17 17 18 18 19 18 18 21 19 22 21 19 21 21 18 18 17 16 17 16 17 15 15 14 12 12 12
13 16 15 14 14 15 16 16 16 16 15 17 19 19 18 17 17 18 19 20 22 23 23 20 19 18 16 17 20 18 17 18 16 16 15 13 12 12
13 15 16 16 16 15 15 15 16 15 16 16 17 17 18 18 18 19 17 18 20 19 20 23 23 21 20 17 15 19 20 19 17 15 14 13 12 11
14 15 15 16 16 15 15 16 16 15 15 15 16 17 17 18 17 19 18 17 18 19 18 17 18 22 21 22 18 14 20 16 15 14 13 12 13 12
13 14 15 15 15 15 15 15 15 15 15 15 16 16 17 17 18 18 18 18 18 18 18 18 19 20 20 19 17 17 13 15 14 13 12 11 11 9
12 13 13 14 14 14 14 14 14 15 15 15 15 16 16 17 17 17 17 16 16 18 19 18 17 14 16 16 20 17 14 11 10 11 11 12 13 13
13 13 12 13 13 14 14 14 14 14 14 15 15 15 16 16 16 16 16 17 17 17 17 17 16 16 17 17 18 16 14 12 10 9 9 10 12 14
12 13 12 13 13 13 13 13 13 13 14 14 15 15 15 16 15 16 16 16 16 17 17 17 16 16 16 17 15 15 14 13 12 12 12 9 9 9

GFSNE_con_lsi_156.txt.gz
Lid_Strength_Index
6 5 5 5 4 5 5 4 4 7 6 5 6 6 6 6 6 8 8 6 5 5 6 6 5 5 5 6 6 6 6 6 5 5 5 5 5 4
6 7 6 7 7 7 6 6 5 5 6 6 8 8 7 8 8 8 8 8 6 6 6 6 6 6 6 7 7 7 6 6 6 6 6 5 5 5
8 8 8 9 9 9 10 10 9 7 6 7 7 8 9 9 9 9 9 10 9 7 7 6 7 7 7 7 7 7 7 7 7 7 7 7 6 6
9 10 10 10 9 10 10 11 11 11 8 7 9 10 10 9 10 10 10 10 11 8 7 7 7 7 8 8 8 8 8 8 8 8 8 7 7 6
11 11 12 12 12 11 11 13 12 10 11 8 10 10 11 11 11 11 11 11 10 9 9 9 9 9 9 8 8 9 9 8 8 8 8 7 7 7
11 12 13 13 13 13 13 14 14 13 13 12 12 12 12 13 14 14 16 15 14 13 12 10 10 9 8 8 8 9 9 9 9 9 9 9 8 8
13 13 13 12 10 11 13 15 15 16 15 15 16 15 16 16 17 17 17 16 16 16 16 16 15 14 13 11 11 9 9 9 9 9 9 8 8 8
13 13 13 11 11 10 10 10 13 15 16 16 17 17 17 17 17 17 17 18 18 15 16 16 16 16 16 15 12 10 9 9 9 8 8 8 9 9
13 13 14 12 12 14 12 11 12 11 12 15 16 17 16 16 16 16 17 17 18 17 17 17 17 17 16 15 11 10 10 10 11 10 10 10 10 9
13 13 14 15 14 14 15 15 16 16 15 14 16 16 15 15 15 15 16 17 17 16 17 19 18 18 18 16 11 11 12 11 11 11 11 10 10 10
13 14 14 14 13 11 15 15 16 15 12 12 12 12 12 12 14 16 18 18 19 18 18 19 19 19 19 18 16 13 13 12 12 12 11 11 11 10
14 13 10 13 11 10 14 16 16 16 15 15 15 13 14 14 13 16 17 20 19 20 18 20 20 20 22 20 18 17 17 14 13 12 12 11 11 12
15 14 14 11 10 10 10 15 15 15 14 16 16 16 16 16 16 17 17 19 22 22 17 20 24 21 22 21 19 19 18 17 17 16 13 13 12 11
15 15 14 12 11 11 11 11 11 12 15 16 17 17 17 17 18 18 17 18 18 19 17 18 22 21 20 22 21 20 19 18 18 19 17 14 13 12
14 15 14 13 12 11 10 10 10 14 16 16 16 16 16 17 19 19 19 18 21 18 16 20 21 21 18 20 19 20 18 18 18 21 18 17 16 15
10 13 13 13 12 12 12 11 14 15 16 16 17 17 18 19 19 21 23 24 24 22 19 21 22 20 20 20 19 18 18 19 19 18 17 16 15 15
11 14 14 15 15 14 15 15 15 15 15 16 17 18 18 18 18 21 22 24 25 25 23 20 18 19 18 20 22 19 18 19 19 18 17 17 16 15
12 14 14 14 15 15 14 14 14 14 14 15 16 17 17 18 18 20 20 21 22 23 21 22 23 21 21 18 16 19 19 19 20 17 17 17 16 14
12 12 13 14 14 14 14 14 14 13 13 14 15 16 16 17 16 18 18 19 19 21 21 17 18 22 25 25 19 15 22 20 17 17 16 16 15 13
11 12 13 13 14 14 14 14 14 14 14 14 15 15 16 17 17 17 17 18 18 21 20 21 19 19 22 21 19 21 15 17 17 16 15 14 12 10
11 11 11 12 13 14 14 14 14 14 14 14 15 15 16 16 17 17 17 15 16 18 21 21 18 14 17 18 21 19 17 13 13 14 14 13 14 13
11 11 11 11 13 13 13 13 14 14 14 14 15 15 15 15 16 16 16 17 17 17 19 20 17 18 20 19 20 20 18 15 13 11 10 10 13 15
10 11 11 11 11 12 12 13 13 13 13 14 14 14 15 16 16 16 16 16 16 17 18 19 19 19 18 19 17 18 18 16 15 14 13 10 9 9